DELTA 1 DEB, 18470

Orbit data source: Space-Track

DELTA 1 DEB, 18470 is space debris in SSO originally from a launch on Tue, 06 Nov 1973 UTC launched from the Air Force Western Test Range (AFWTR). Debris objects in space refer to the collection of defunct objects orbiting the Earth. Examples of debris include non-operational satellites, rocket bodies, and fragments generated from explosions, collisions, or faulty payload assembly.

Loading next visibility...
Identifier
18470, 1973-086GU
Orbit
SSO
Country
Flag of USUS
Related business
Manufacturer
Unknown
Mission
Spacecraft
Bus & Motor
Unknown
Mass
Unknown
Launch date (UTC)
1973-11-06 (52 years ago)
Launch vehicle
Unknown
Launch site
Air Force Western Test Range (AFWTR)
Object type
Payload
Rocket body
Debris
Shape & HBR
Unknown shape, 0.1 m
Radar Cross Section
Small (<0.1 m²)

Expand to show TLE details & history
Last TLE update: 11 hours ago

TLE from 11 hours ago
0 DELTA 1 DEB
1 18470U 73086GU  26034.43148022 -.00000114  00000-0 -80586-3 0  9991
2 18470 101.7593 200.4435 0180342 328.4501  57.2928 12.06644336803275
Epoch: 2026-02-03T10:21Z
TLE epoch observation values (Epoch: 2026-02-03T10:21:19.891Z)
Latitude
26.91506°
Longitude
-94.53862°
Altitude
1,577.812 km
Speed
7.115 km/s
True Right ascension
12h 57m 37s
True Declination
26° 47' 27"
Sunlit
Object was in daylight at epoch
Visualization orbit readout
Latitude
Unknown
Longitude
Unknown
Altitude
Unknown
Speed
Unknown
Apparent Right ascension
Unknown
Apparent Declination
Unknown
Sunlit
N/A
Visualization observer readout
Local Sidereal Time
22:54:04
Azimuth
Unknown
Elevation
Unknown
Doppler factor
Unknown
Orbital elements
Apogee altitude
1,793.613 km
Perigee altitude
1,504.092 km
Semi-major axis
8,026.989 km
Eccentricity
0.01803
Inclination
101.7593°
RAAN
200.4435°
Arg. of periapsis
328.4501°
True anomaly
59.05285°
Mean anomaly
57.2928°
Eccentric anomaly
58.1707°
Mean motion
3.01796 °/min
Orbital period
119.29 mins
BSTAR
-0.00080586
Loading maneuver chart data...
Computing Atmospheric mass density...
Loading historical data...
Loading historical data...
Loading historical data...
Loading historical data...
Loading historical data...
Loading historical data...
Loading historical data...

Documentation

Showing up to 5 results
|